User: anonymous   Login
Location: Unspecified
(0.0000°N, 0.0000°E)
Time: 18:21:53
(UTC+00:00)
Language:

TIANQI 28 - Orbit

View from above orbital plane
View from above orbital plane
View from above satellite
View from above satellite

Ground track
Ground track

The orbit is defined by the following mean orbital elements,

1 59912U          26145.49872838 +.00000000 +00000-0 +15634-3 0 00008
2 59912  44.9802   2.6276 0011202 141.7798 218.3831 13.99159073    04
Epoch (UTC): 25 May 2026 11:58:10
Eccentricity: 0.0011202
inclination: 44.9802°
perigee height: 889 km
apogee height: 905 km
right ascension of ascending node: 2.6276°
argument of perigee: 141.7798°
revolutions per day: 13.99159073
mean anomaly at epoch: 218.3831°

The dashed part of the orbit path shows where the satellite is in the earth's shadow,  

DLR